CW5391 Weather Reports


time (UTC)temp
F
wind
direction
speed
knots
gust
knots
rain 1hr
in
rain 24hr
in
rain mn
in
humidity
%
barometer
mb
20260510225314 61 303 1.7 7.8 0.00 0.02 0.02 34 1010.0
20260510224824 61 341 3.5 7.0 0.00 0.02 0.02 34 1010.0
20260510224315 61 192 3.5 8.7 0.00 0.02 0.02 33 1009.8
20260510223850 62 319 3.5 8.7 0.00 0.02 0.02 32 1009.8
20260510223337 62 202 2.6 7.8 0.00 0.02 0.02 33 1009.8
20260510222818 63 324 4.3 7.8 0.00 0.02 0.02 33 1009.6
20260510222357 63 360 2.6 7.8 0.00 0.02 0.02 35 1009.6
20260510221835 63 317 2.6 7.8 0.00 0.02 0.02 35 1009.6
20260510221330 63 57 1.7 7.8 0.00 0.02 0.02 37 1009.4
20260510220828 64 10 1.7 7.0 0.00 0.02 0.02 36 1009.4
20260510220322 64 144 2.6 8.7 0.00 0.02 0.02 37 1009.4
20260510215827 64 102 2.6 8.7 0.00 0.02 0.02 38 1009.1
20260510215331 65 321 4.3 8.7 0.00 0.02 0.02 35 1009.1
20260510214816 65 338 3.5 8.7 0.00 0.02 0.02 36 1009.1
20260510214324 66 14 3.5 7.8 0.00 0.02 0.02 36 1008.8
20260510213829 66 334 2.6 9.6 0.00 0.02 0.02 40 1008.8
20260510213342 66 233 1.7 9.6 0.00 0.02 0.02 39 1008.8
20260510212827 66 338 4.3 9.6 0.00 0.02 0.02 37 1008.7
20260510212353 66 320 2.6 9.6 0.00 0.02 0.02 39 1008.7
20260510211839 66 9 5.2 9.6 0.00 0.02 0.02 36 1008.7
20260510211314 66 325 3.5 10.4 0.00 0.02 0.02 40 1008.4
20260510210821 66 304 4.3 9.6 0.00 0.02 0.02 38 1008.4
20260510210334 66 223 3.5 7.8 0.00 0.02 0.02 39 1008.4
20260510205814 66 232 3.5 7.0 0.00 0.02 0.02 37 1008.1
20260510205330 67 163 3.5 7.0 0.00 0.02 0.02 36 1008.1
20260510204842 67 321 1.7 15.6 0.00 0.02 0.02 39 1008.1
20260510204333 67 338 2.6 15.6 0.00 0.02 0.02 41 1008.1
20260510203832 67 355 3.5 9.6 0.00 0.02 0.02 43 1008.1
20260510203328 67 9 3.5 9.6 0.00 0.02 0.02 43 1008.1
20260510202854 67 278 4.3 7.8 0.00 0.02 0.02 46 1008.0
20260510202317 67 38 2.6 7.0 0.00 0.02 0.02 48 1008.0
20260510201842 67 225 2.6 7.8 0.00 0.02 0.02 48 1008.0
20260510201330 66 323 2.6 7.8 0.00 0.02 0.02 45 1007.9
20260510200901 67 330 2.6 9.6 0.00 0.02 0.02 45 1007.9
20260510200326 67 103 3.5 9.6 0.00 0.02 0.02 50 1007.9
20260510195833 67 113 5.2 9.6 0.00 0.03 0.02 51 1008.1
20260510195315 66 94 2.6 9.6 0.00 0.03 0.02 52 1008.1
20260510194839 65 175 6.1 9.6 0.00 0.03 0.02 56 1008.1
20260510194318 65 144 2.6 7.8 0.00 0.03 0.02 56 1008.3
20260510193823 65 5 3.5 7.8 0.00 0.03 0.02 56 1008.3
20260510193329 64 258 2.6 7.0 0.00 0.03 0.02 60 1008.3
20260510192838 63 219 1.7 7.0 0.00 0.03 0.02 61 1008.4
20260510192332 63 200 1.7 7.0 0.00 0.03 0.02 64 1008.4
20260510191901 63 150 2.6 6.1 0.00 0.03 0.02 66 1008.4
20260510191324 62 213 2.6 6.1 0.00 0.03 0.02 63 1008.6
20260510190832 62 257 2.6 6.1 0.00 0.03 0.02 62 1008.6
20260510190324 62 169 1.7 6.1 0.00 0.03 0.02 66 1008.6
20260510185813 62 147 3.5 6.1 0.00 0.04 0.02 67 1008.8
20260510185325 62 169 2.6 6.1 0.00 0.04 0.02 65 1008.8
20260510184837 62 137 2.6 7.0 0.00 0.04 0.02 65 1008.8
20260510184323 63 209 3.5 7.0 0.00 0.04 0.02 63 1008.8
20260510183832 63 277 2.6 9.6 0.00 0.04 0.02 71 1008.8
20260510183347 62 71 3.5 9.6 0.00 0.04 0.02 68 1008.8
20260510182814 60 182 2.6 7.0 0.00 0.04 0.02 69 1008.9
20260510182342 59 298 2.6 7.0 0.00 0.04 0.02 69 1008.9
20260510181821 60 42 1.7 6.1 0.00 0.04 0.02 69 1008.9
20260510181330 60 130 2.6 6.1 0.00 0.04 0.02 68 1008.8
20260510180841 60 142 2.6 7.0 0.00 0.04 0.02 66 1008.8
20260510180321 60 32 1.7 7.0 0.00 0.04 0.02 70 1008.8
20260510175812 60 117 2.6 7.8 0.00 0.05 0.02 69 1008.7
20260510175321 60 171 2.6 7.0 0.00 0.05 0.02 66 1008.7
20260510174817 60 298 2.6 7.0 0.00 0.05 0.02 66 1008.7
20260510174324 60 247 1.7 7.0 0.00 0.05 0.02 70 1008.8
20260510173833 59 27 0.9 7.0 0.00 0.05 0.02 70 1008.8
20260510173343 59 157 0.9 4.3 0.00 0.05 0.02 73 1008.8
20260510172817 58 150 1.7 4.3 0.00 0.05 0.02 76 1008.8
20260510172356 57 152 2.6 4.3 0.00 0.05 0.02 78 1008.8
20260510171829 57 163 1.7 3.5 0.00 0.05 0.02 79 1008.8
20260510171317 56 117 0.9 4.3 0.00 0.05 0.02 78 1008.9
20260510170832 56 204 1.7 4.3 0.00 0.05 0.02 80 1008.9
20260510170313 56 5 0.9 3.5 0.00 0.07 0.02 81 1008.9
20260510165824 56 173 1.7 3.5 0.00 0.07 0.02 82 1009.0
20260510165319 56 298 1.7 3.5 0.00 0.07 0.02 82 1009.0
20260510164843 56 24 1.7 3.5 0.00 0.07 0.02 82 1009.0
20260510164315 56 52 1.7 5.2 0.00 0.07 0.02 82 1008.9
20260510163819 57 355 0.9 5.2 0.00 0.07 0.02 81 1008.9
20260510163314 57 18 2.6 7.0 0.00 0.07 0.02 80 1008.9
20260510162824 57 298 3.5 7.0 0.00 0.07 0.02 79 1008.9
20260510162332 57 13 3.5 7.0 0.00 0.07 0.02 83 1008.9
20260510161841 57 154 2.6 7.8 0.00 0.07 0.02 81 1008.9
20260510161328 57 144 3.5 7.0 0.00 0.07 0.02 82 1009.0
20260510160900 57 120 2.6 7.0 0.00 0.07 0.02 83 1009.0
20260510160314 56 195 2.6 7.0 0.00 0.13 0.02 83 1009.0
20260510155818 56 36 1.7 5.2 0.00 0.13 0.02 85 1008.9
20260510155332 55 142 1.7 6.1 0.00 0.13 0.02 85 1008.9
20260510154838 55 220 2.6 6.1 0.00 0.13 0.02 85 1008.9
20260510154319 55 142 1.7 3.5 0.00 0.13 0.02 88 1008.7
20260510153828 54 61 0.9 7.0 0.00 0.13 0.02 87 1008.7
20260510153327 54 111 0.0 7.0 0.00 0.13 0.02 86 1008.7
20260510152817 54 109 2.6 4.3 0.00 0.13 0.02 85 1008.6
20260510152326 54 296 1.7 4.3 0.01 0.13 0.02 86 1008.6
20260510151836 54 22 1.7 5.2 0.01 0.13 0.02 86 1008.6
20260510151323 54 342 1.7 7.0 0.01 0.13 0.02 86 1008.5
20260510150833 54 234 3.5 7.0 0.01 0.13 0.02 87 1008.5
20260510150342 54 94 1.7 6.1 0.01 0.13 0.02 89 1008.5
20260510145854 54 118 1.7 3.5 0.01 0.15 0.02 90 1008.1
20260510145323 54 109 0.9 2.6 0.01 0.15 0.02 89 1008.1
20260510144821 54 217 0.9 2.6 0.01 0.15 0.02 89 1008.1
20260510144342 54 146 0.0 1.7 0.01 0.15 0.02 88 1007.9
20260510143815 55 112 0.9 4.3 0.01 0.15 0.02 89 1007.9
20260510143327 55 245 1.7 4.3 0.01 0.15 0.02 88 1007.9
20260510142813 55 127 0.9 5.2 0.01 0.15 0.02 86 1008.3
20260510142313 55 57 0.9 5.2 0.00 0.14 0.01 85 1008.3
20260510141817 55 118 2.6 5.2 0.00 0.14 0.01 85 1008.3
20260510141327 56 246 1.7 4.3 0.00 0.14 0.01 85 1007.9
20260510140838 56 241 1.7 4.3 0.00 0.14 0.01 84 1007.9
20260510140328 56 123 0.9 5.2 0.00 0.14 0.01 85 1007.9
20260510135834 56 210 1.7 5.2 0.00 0.14 0.01 84 1007.4
20260510135313 56 130 2.6 4.3 0.00 0.14 0.01 83 1007.4
20260510134818 57 142 0.9 3.5 0.00 0.14 0.01 84 1007.4
20260510134319 57 134 0.9 3.5 0.00 0.14 0.01 82 1007.3
20260510133814 57 278 0.9 5.2 0.00 0.14 0.01 82 1007.3
20260510133328 57 198 1.7 5.2 0.00 0.14 0.01 82 1007.3
20260510132820 58 242 1.7 6.1 0.00 0.14 0.01 82 1007.2
20260510132330 58 215 1.7 6.1 0.00 0.14 0.01 81 1007.2
20260510131829 58 120 3.5 6.1 0.00 0.14 0.01 81 1007.2
20260510131320 58 229 1.7 4.3 0.00 0.14 0.01 82 1007.4
20260510130828 58 128 0.9 4.3 0.00 0.14 0.01 85 1007.4
20260510125832 57 139 3.5 6.1 0.00 0.14 0.01 84 1007.4
20260510125402 56 202 1.7 6.1 0.00 0.14 0.01 85 1007.4
20260510124815 56 180 1.7 4.3 0.00 0.14 0.01 86 1007.4
20260510124324 56 205 1.7 4.3 0.00 0.14 0.01 86 1007.3
20260510123816 56 316 0.9 2.6 0.00 0.14 0.01 88 1007.3
20260510123311 56 198 0.9 6.1 0.00 0.14 0.01 89 1007.3
20260510122834 55 134 1.7 6.1 0.00 0.14 0.01 87 1006.8
20260510122329 55 138 2.6 6.1 0.00 0.14 0.01 88 1006.8
20260510121818 55 227 0.9 3.5 0.00 0.14 0.01 90 1006.8
20260510121325 54 162 0.9 3.5 0.00 0.14 0.01 90 1007.1
20260510120851 54 200 0.9 7.0 0.00 0.14 0.01 92 1007.1
20260510120316 53 182 1.7 7.0 0.00 0.14 0.01 94 1007.1
20260510115823 52 90 0.9 2.6 0.00 0.14 0.01 94 1007.3
20260510115337 51 128 0.0 3.5 0.00 0.14 0.01 94 1007.3
20260510114816 51 155 0.9 3.5 0.00 0.14 0.01 95 1007.3
20260510114348 51 215 0.0 4.3 0.00 0.14 0.01 95 1007.0
20260510113837 50 126 1.7 4.3 0.00 0.14 0.01 95 1007.0
20260510113330 50 107 0.0 1.7 0.00 0.14 0.01 95 1007.0
20260510112819 50 101 0.0 1.7 0.00 0.14 0.01 95 1006.8
20260510112315 49 101 0.0 1.7 0.00 0.14 0.01 95 1006.8
20260510111827 50 51 0.0 0.9 0.00 0.14 0.01 95 1006.8
20260510111330 50 131 0.0 0.0 0.00 0.14 0.01 95 1006.5
20260510110841 50 131 0.0 0.9 0.00 0.14 0.01 95 1006.5
20260510110330 50 131 0.0 0.9 0.00 0.14 0.01 95 1006.5
20260510105838 50 131 0.0 1.7 0.00 0.14 0.01 95 1006.3
20260510105317 50 164 0.0 2.6 0.00 0.14 0.01 95 1006.3
20260510104850 50 155 0.9 2.6 0.00 0.14 0.01 95 1006.3
20260510104313 50 132 0.9 2.6 0.00 0.14 0.01 95 1006.0
20260510103822 49 116 0.9 2.6 0.00 0.14 0.01 95 1006.0
20260510103319 49 123 1.7 1.7 0.00 0.14 0.01 95 1006.0
20260510102846 49 123 1.7 1.7 0.00 0.14 0.01 95 1006.3
20260510102336 49 123 0.9 1.7 0.00 0.14 0.01 95 1006.3
20260510101815 49 123 0.0 0.0 0.00 0.14 0.01 95 1006.3
20260510101319 49 123 0.0 0.9 0.00 0.14 0.01 95 1006.0
20260510100904 49 123 0.0 0.9 0.00 0.14 0.01 95 1006.0
20260510100316 49 123 0.0 1.7 0.00 0.14 0.01 94 1006.0
20260510095826 49 123 0.0 0.9 0.00 0.14 0.01 94 1005.4
20260510095315 49 123 0.0 0.9 0.00 0.14 0.01 95 1005.4
20260510094844 49 123 0.0 0.0 0.00 0.14 0.01 95 1005.4
20260510094335 49 123 0.0 0.0 0.00 0.14 0.01 95 1005.4
20260510093818 49 123 0.0 0.0 0.00 0.14 0.01 95 1005.4
20260510093323 49 123 0.0 0.0 0.00 0.14 0.01 95 1005.4
20260510092835 49 123 0.0 0.0 0.00 0.14 0.01 95 1005.3
20260510092332 49 123 0.0 0.0 0.00 0.14 0.01 94 1005.3
20260510091814 49 123 0.0 1.7 0.00 0.14 0.01 93 1005.3
20260510091318 49 123 0.0 1.7 0.00 0.14 0.01 94 1005.0
20260510090828 49 123 0.0 4.3 0.00 0.14 0.01 93 1005.0
20260510090341 49 109 0.9 4.3 0.00 0.14 0.01 93 1005.0
20260510085816 50 134 0.9 3.5 0.00 0.14 0.01 93 1005.3
20260510085328 50 115 1.7 2.6 0.00 0.14 0.01 93 1005.3
20260510084838 50 109 1.7 1.7 0.00 0.14 0.01 93 1005.3
20260510084348 51 139 0.0 0.9 0.00 0.14 0.01 93 1005.0
20260510083817 51 139 0.0 1.7 0.00 0.14 0.01 93 1005.0
20260510083344 51 139 0.9 1.7 0.00 0.14 0.01 93 1005.0
20260510082813 51 169 0.9 4.3 0.00 0.14 0.01 93 1004.7
20260510082340 51 222 1.7 4.3 0.00 0.14 0.01 92 1004.7
20260510081821 51 161 1.7 8.7 0.00 0.14 0.01 92 1004.7
20260510081337 51 159 2.6 8.7 0.00 0.14 0.01 93 1004.7
20260510080858 51 161 4.3 8.7 0.00 0.14 0.01 93 1004.7
20260510080330 51 160 3.5 11.3 0.01 0.14 0.01 93 1004.7
20260510075823 51 109 3.5 11.3 0.01 0.14 0.01 93 1005.5
20260510075333 51 163 2.6 6.1 0.01 0.14 0.01 93 1005.5
20260510074838 51 114 2.6 5.2 0.01 0.14 0.01 93 1005.5
20260510074349 51 146 2.6 5.2 0.01 0.14 0.01 93 1006.1
20260510073834 51 132 1.7 3.5 0.01 0.14 0.01 93 1006.1
20260510073314 51 140 0.9 4.3 0.01 0.14 0.01 93 1006.1
20260510072826 51 138 2.6 5.2 0.01 0.14 0.01 92 1006.2
20260510072315 51 158 2.6 5.2 0.01 0.14 0.01 92 1006.2
20260510071814 51 103 0.9 2.6 0.01 0.14 0.01 92 1006.2
20260510071332 51 113 0.9 2.6 0.01 0.14 0.01 92 1006.1
20260510070829 51 166 0.9 3.5 0.00 0.13 0.00 91 1006.1
20260510070347 51 149 0.9 4.3 0.00 0.13 0.00 91 1006.1
20260510065815 52 150 1.7 4.3 0.00 0.13 0.00 90 1005.9
20260510065346 52 121 1.7 2.6 0.00 0.13 0.00 89 1005.9
20260510064826 52 152 0.0 1.7 0.00 0.13 0.00 89 1005.9
20260510064331 52 112 0.9 1.7 0.00 0.13 0.00 88 1005.6
20260510063832 52 136 0.9 2.6 0.00 0.13 0.00 89 1005.6
20260510063321 52 155 0.9 2.6 0.00 0.13 0.00 89 1005.6
20260510062810 52 140 0.9 4.3 0.00 0.13 0.00 88 1005.7
20260510062339 52 139 1.7 4.3 0.00 0.13 0.00 88 1005.7
20260510061821 51 130 1.7 4.3 0.00 0.13 0.00 88 1005.7
20260510061401 51 155 1.7 2.6 0.00 0.13 0.00 89 1005.4
20260510060841 51 155 1.7 1.7 0.00 0.13 0.00 89 1005.4
20260510060403 51 128 0.9 1.7 0.00 0.13 0.00 89 1005.4
20260510055845 51 163 0.9 1.7 0.00 0.13 0.00 89 1005.3
20260510055321 51 162 0.9 3.5 0.00 0.13 0.00 89 1005.3
20260510054813 51 162 1.7 2.6 0.00 0.13 0.00 89 1005.3
20260510054323 51 179 0.9 2.6 0.00 0.13 0.00 89 1005.3
20260510053829 51 151 0.9 2.6 0.00 0.13 0.00 89 1005.3
20260510053329 51 163 0.9 2.6 0.00 0.13 0.00 89 1005.3
20260510052814 51 182 0.9 2.6 0.00 0.13 0.00 89 1005.4
20260510052322 51 131 0.9 2.6 0.00 0.13 0.00 88 1005.4
20260510051830 51 127 0.9 1.7 0.00 0.13 0.00 88 1005.4
20260510051335 51 152 0.0 0.9 0.00 0.13 0.00 88 1005.5
20260510050826 51 152 0.0 1.7 0.00 0.13 0.00 89 1005.5
20260510050326 51 152 0.9 3.5 0.00 0.13 0.00 89 1005.5
20260510045841 51 152 0.9 3.5 0.00 0.13 0.00 89 1005.3
20260510045324 51 157 1.7 3.5 0.00 0.13 0.00 89 1005.3
20260510044835 51 169 1.7 6.1 0.00 0.13 0.00 89 1005.3
20260510044324 51 175 1.7 6.1 0.00 0.13 0.00 88 1005.3
20260510043827 51 141 1.7 3.5 0.00 0.13 0.00 89 1005.3
20260510043351 51 170 0.9 3.5 0.00 0.13 0.00 88 1005.3
20260510042814 51 175 1.7 3.5 0.00 0.13 0.00 88 1005.5
20260510042343 51 156 1.7 3.5 0.00 0.13 0.00 89 1005.5
20260510041830 51 125 0.9 2.6 0.00 0.13 0.00 89 1005.5
20260510041343 51 118 0.9 1.7 0.00 0.13 0.00 89 1005.7
20260510040831 51 118 0.9 1.7 0.00 0.13 0.00 88 1005.7
20260510040319 51 143 1.7 6.1 0.00 0.13 0.00 88 1005.7
20260510035825 51 138 1.7 6.1 0.00 0.13 0.13 88 1005.3
20260510035322 51 121 0.9 3.5 0.00 0.13 0.13 89 1005.3
20260510034814 51 131 0.9 3.5 0.00 0.13 0.13 89 1005.3
20260510034325 51 113 1.7 3.5 0.00 0.13 0.13 89 1005.3
20260510033837 51 155 1.7 3.5 0.00 0.13 0.13 89 1005.3
20260510033342 51 109 1.7 4.3 0.00 0.13 0.13 89 1005.3
20260510032847 51 142 1.7 4.3 0.00 0.13 0.13 89 1005.5
20260510032336 51 142 1.7 4.3 0.00 0.13 0.13 89 1005.5
20260510031812 51 132 0.9 5.2 0.00 0.13 0.13 90 1005.5
20260510031323 51 155 0.9 2.6 0.00 0.13 0.13 89 1005.6
20260510030832 51 111 0.9 2.6 0.00 0.13 0.13 89 1005.6
20260510030314 50 124 0.0 1.7 0.00 0.13 0.13 90 1005.6
20260510025821 50 124 0.9 1.7 0.00 0.13 0.13 90 1005.6
20260510025313 50 116 0.9 1.7 0.00 0.13 0.13 90 1005.6
20260510024845 50 171 0.9 1.7 0.00 0.13 0.13 90 1005.6
20260510024312 51 193 0.0 1.7 0.00 0.13 0.13 89 1005.5
20260510023839 51 128 0.0 2.6 0.00 0.13 0.13 89 1005.5
20260510023315 51 128 0.9 2.6 0.00 0.13 0.13 89 1005.5
20260510022826 51 105 1.7 2.6 0.00 0.13 0.13 89 1005.7
20260510022318 51 129 0.9 2.6 0.00 0.13 0.13 89 1005.7
20260510021811 51 218 0.0 4.3 0.00 0.13 0.13 88 1005.7
20260510021339 51 164 1.7 4.3 0.00 0.13 0.13 87 1005.3
20260510020815 51 124 1.7 3.5 0.00 0.13 0.13 88 1005.3
20260510020331 51 225 0.9 5.2 0.00 0.13 0.13 87 1005.3
20260510015841 51 120 1.7 7.0 0.00 0.13 0.13 87 1005.3
20260510015346 51 146 1.7 7.0 0.00 0.13 0.13 87 1005.3
20260510014838 51 144 0.9 6.1 0.00 0.13 0.13 87 1005.3
20260510014314 51 132 2.6 9.6 0.00 0.13 0.13 86 1005.7
20260510013841 51 115 2.6 9.6 0.00 0.13 0.13 86 1005.7
20260510013402 51 346 1.7 7.0 0.00 0.13 0.13 86 1005.7
20260510012818 51 77 1.7 7.0 0.00 0.13 0.13 86 1005.7
20260510012312 51 336 1.7 4.3 0.00 0.13 0.13 87 1005.7
20260510011822 51 76 1.7 4.3 0.00 0.13 0.13 87 1005.7
20260510011329 51 80 0.9 4.3 0.00 0.13 0.13 88 1005.7
20260510010838 51 145 1.7 6.1 0.00 0.13 0.13 87 1005.7
20260510010341 51 102 1.7 6.1 0.00 0.13 0.13 87 1005.7
20260510005838 51 120 0.9 5.2 0.00 0.13 0.13 87 1005.7
20260510005342 51 94 0.9 5.2 0.00 0.13 0.13 87 1005.7
20260510004825 51 179 1.7 6.1 0.00 0.13 0.13 86 1005.7
20260510004333 51 179 1.7 6.1 0.00 0.13 0.13 86 1005.3
20260510003847 51 96 1.7 6.1 0.00 0.13 0.13 87 1005.3
20260510003333 51 344 2.6 6.1 0.00 0.13 0.13 87 1005.3
20260510002824 51 142 1.7 7.0 0.00 0.13 0.13 87 1005.2
20260510002318 51 46 1.7 7.0 0.00 0.13 0.13 87 1005.2
20260510001823 52 21 0.9 7.0 0.00 0.13 0.13 86 1005.2
20260510001315 52 103 2.6 7.0 0.00 0.13 0.13 87 1005.3
20260510000829 52 108 1.7 6.1 0.00 0.13 0.13 87 1005.3
20260510000343 52 130 2.6 4.3 0.00 0.13 0.13 86 1005.3
20260509235817 52 48 1.7 5.2 0.00 0.13 0.13 87 1005.1
20260509235329 52 134 1.7 5.2 0.00 0.13 0.13 86 1005.1
20260509234838 52 140 1.7 5.2 0.00 0.13 0.13 87 1005.1
20260509234322 52 133 1.7 4.3 0.00 0.13 0.13 86 1004.8
20260509233835 52 101 2.6 4.3 0.00 0.13 0.13 87 1004.8
20260509233339 52 99 0.9 3.5 0.00 0.13 0.13 87 1004.8
20260509232828 52 308 1.7 5.2 0.00 0.13 0.13 87 1004.7
20260509232320 52 69 1.7 5.2 0.00 0.13 0.13 88 1004.7
20260509231821 52 69 1.7 6.1 0.00 0.13 0.13 88 1004.7
20260509231339 52 136 0.9 6.1 0.00 0.13 0.13 88 1004.7
20260509230848 52 130 1.7 5.2 0.00 0.13 0.13 86 1004.7
20260509230331 52 190 1.7 5.2 0.00 0.13 0.13 86 1004.7
20260509225820 52 138 2.6 5.2 0.00 0.13 0.13 86 1004.7